Hourly Data Report for April 02, 2019

MIRAMICHI RCS
NEW BRUNSWICK
Current Station Operator: ECCC - MSC

47°00'34.000" N
65°27'54.000" W
33.00 m
8100989
71744
ACQ

Download Data

Hourly Data (April 2019)
Hourly Data Report for April 2, 2019
TIME
LST
Temp Definition
°C
Dew Point Definition
°C
Rel Hum Definition
%
Precip. Amount Definition
mm

Wind Dir Definition
10's deg

Wind Spd Definition
km/h
Visibility Definition
km
Stn Press Definition
kPa
Hmdx Definition


Wind Chill Definition


Weather Definition


00:00 -2.6 -11.9 49 0.0 28 20   101.20   -9 LegendNANA
01:00 -3.1 -11.3 53 0.0 26 18   101.29   -9 LegendNANA
02:00 -3.2 -10.4 58 0.0 26 19   101.39   -9 LegendNANA
03:00 -3.3 -9.6 61 0.0 25 17   101.49   -9 LegendNANA
04:00 -3.1 -9.1 63 0.0 25 20   101.59   -9 LegendNANA
05:00 -3.8 -8.9 68 0.0 23 17   101.68   -10 LegendNANA
06:00 -3.9 -8.9 68 0.0 23 20   101.79   -10 LegendNANA
07:00 -2.9 -9.0 63 0.0 24 19   101.90   -9 LegendNANA
08:00 -1.3 -8.6 58 0.0 24 24   101.95   -7 LegendNANA
09:00 0.7 -8.2 51 0.0 25 20   102.03     LegendNANA
10:00 2.6 -8.1 45 0.0 26 23   102.07     LegendNANA
11:00 3.9 -7.9 42 0.0 24 25   102.06     LegendNANA
12:00 4.9 -9.1 35 0.0 23 26   102.03     LegendNANA
13:00 5.6 -10.6 30 0.0 25 32   102.03     LegendNANA
14:00 5.9 -9.9 31 0.0 24 31   102.04     LegendNANA
15:00 5.9 -8.9 34 0.0 24 29   102.03     LegendNANA
16:00 6.6 -9.7 30 0.0 24 29   102.08     LegendNANA
17:00 6.2 -8.8 33 0.0 24 30   102.09     LegendNANA
18:00 5.4 -7.8 38 0.0 23 21   102.11     LegendNANA
19:00 5.0 -5.7 46 0.0 21 27   102.17     LegendNANA
20:00 3.7 -4.8 53 0.0 21 27   102.32     LegendNANA
21:00 2.8 -3.9 61 0.0 20 23   102.38     LegendNANA
22:00 2.0 -3.5 67 0.0 21 21   102.34     LegendNANA
23:00 1.8 -3.4 68 0.0 21 23   102.38     LegendNANA

Notes on Data Quality.

Legend

  • E = Estimated
  • M = Missing
  • NA = Not Available*
  • [empty] = Indicates an unobserved value
Date modified: